Time,TemperatureF,DewpointF,PressureIn,WindDirection,WindDirectionDegrees,WindSpeedMPH,WindSpeedGustMPH,Humidity,HourlyPrecipIn,Conditions,Clouds,dailyrainin,SoftwareType,DateUTC
2013-05-01 00:00:00,65.2,53.6,29.75,ESE,113,0.0,2.0,66,0.00,,BKN032,0.00,VWS V14.01,2013-05-01 05:00:00,
2013-05-01 00:03:00,62.0,53.6,29.76,ESE,115,0.0,0.0,74,0.00,,CLR,0.00,VWS V14.01,2013-05-01 05:03:00,
2013-05-01 00:08:00,61.8,53.8,29.76,ESE,115,0.0,0.0,75,0.00,,CLR,0.00,VWS V14.01,2013-05-01 05:08:00,
2013-05-01 00:13:00,61.6,54.0,29.76,ESE,115,0.0,0.0,76,0.00,,CLR,0.00,VWS V14.01,2013-05-01 05:13:00,
2013-05-01 00:18:00,61.3,53.7,29.76,ESE,115,0.0,0.0,76,0.00,,CLR,0.00,VWS V14.01,2013-05-01 05:18:00,
2013-05-01 00:23:00,61.1,53.8,29.76,ESE,115,0.0,0.0,77,0.00,,CLR,0.00,VWS V14.01,2013-05-01 05:23:00,
2013-05-01 00:28:00,60.9,53.7,29.76,ESE,115,0.0,0.0,77,0.00,,CLR,0.00,VWS V14.01,2013-05-01 05:28:00,
2013-05-01 00:30:00,60.9,53.7,29.76,ESE,115,0.0,0.0,77,0.00,,CLR,0.00,VWS V14.01,2013-05-01 05:30:00,
2013-05-01 00:33:00,60.7,53.5,29.76,ESE,115,0.0,0.0,77,0.00,,CLR,0.00,VWS V14.01,2013-05-01 05:33:00,
2013-05-01 00:38:00,60.6,53.4,29.76,ESE,115,0.0,0.0,77,0.00,,CLR,0.00,VWS V14.01,2013-05-01 05:38:00,
2013-05-01 00:44:00,60.5,53.6,29.76,ESE,115,0.0,0.0,78,0.00,,CLR,0.00,VWS V14.01,2013-05-01 05:44:00,
2013-05-01 00:54:00,60.2,53.3,29.76,ESE,115,0.0,0.0,78,0.00,,CLR,0.00,VWS V14.01,2013-05-01 05:54:00,
2013-05-01 00:59:00,60.1,53.6,29.76,ESE,115,0.0,0.0,79,0.00,,CLR,0.00,VWS V14.01,2013-05-01 05:59:00,
2013-05-01 01:00:00,60.1,53.6,29.76,ESE,115,0.0,0.0,79,0.00,,CLR,0.00,VWS V14.01,2013-05-01 06:00:00,
2013-05-01 01:04:00,60.0,53.5,29.76,ESE,115,0.0,0.0,79,0.00,,CLR,0.00,VWS V14.01,2013-05-01 06:04:00,
2013-05-01 01:09:00,59.8,53.3,29.76,ESE,115,0.0,0.0,79,0.00,,CLR,0.00,VWS V14.01,2013-05-01 06:09:00,
2013-05-01 01:14:00,59.8,54.0,29.76,ESE,115,0.0,0.0,81,0.00,,CLR,0.00,VWS V14.01,2013-05-01 06:14:00,
2013-05-01 01:19:00,59.6,53.4,29.76,ESE,115,0.0,0.0,80,0.00,,CLR,0.00,VWS V14.01,2013-05-01 06:19:00,
2013-05-01 01:24:00,59.5,53.7,29.77,ESE,115,0.0,0.0,81,0.00,,CLR,0.00,VWS V14.01,2013-05-01 06:24:00,
2013-05-01 01:29:00,59.4,53.6,29.77,ESE,115,0.0,0.0,81,0.00,,CLR,0.00,VWS V14.01,2013-05-01 06:29:00,
2013-05-01 01:30:00,59.4,53.6,29.77,ESE,115,0.0,0.0,81,0.00,,CLR,0.00,VWS V14.01,2013-05-01 06:30:00,
2013-05-01 01:34:00,59.4,53.9,29.77,ESE,115,0.0,0.0,82,0.00,,CLR,0.00,VWS V14.01,2013-05-01 06:34:00,
2013-05-01 01:39:00,59.3,53.8,29.77,ESE,115,0.0,0.0,82,0.00,,CLR,0.00,VWS V14.01,2013-05-01 06:39:00,
2013-05-01 01:45:00,59.2,53.7,29.77,ESE,115,0.0,0.0,82,0.00,,CLR,0.00,VWS V14.01,2013-05-01 06:45:00,
2013-05-01 01:50:00,59.1,53.6,29.76,ESE,115,0.0,0.0,82,0.00,,CLR,0.00,VWS V14.01,2013-05-01 06:50:00,
2013-05-01 01:55:00,59.1,53.6,29.77,ESE,115,0.0,0.0,82,0.00,,CLR,0.00,VWS V14.01,2013-05-01 06:55:00,
2013-05-01 02:00:00,59.0,53.8,29.76,ESE,115,0.0,0.0,83,0.00,,CLR,0.00,VWS V14.01,2013-05-01 07:00:00,
2013-05-01 02:05:00,58.9,53.8,29.76,ESE,115,0.0,0.0,83,0.00,,CLR,0.00,VWS V14.01,2013-05-01 07:05:00,
2013-05-01 02:10:00,58.8,53.7,29.76,ESE,115,0.0,0.0,83,0.00,,CLR,0.00,VWS V14.01,2013-05-01 07:10:00,
2013-05-01 02:15:00,58.7,53.6,29.77,ESE,115,0.0,0.0,83,0.00,,CLR,0.00,VWS V14.01,2013-05-01 07:15:00,
2013-05-01 02:20:00,58.6,53.5,29.77,ESE,115,0.0,0.0,83,0.00,,CLR,0.00,VWS V14.01,2013-05-01 07:20:00,
2013-05-01 02:25:00,58.5,53.7,29.76,ESE,115,0.0,0.0,84,0.00,,CLR,0.00,VWS V14.01,2013-05-01 07:25:00,
2013-05-01 02:30:00,58.4,53.6,29.76,ESE,115,0.0,0.0,84,0.00,,CLR,0.00,VWS V14.01,2013-05-01 07:30:00,
2013-05-01 02:35:00,58.3,53.5,29.76,ESE,115,0.0,0.0,84,0.00,,CLR,0.00,VWS V14.01,2013-05-01 07:35:00,
2013-05-01 02:41:00,58.2,53.7,29.76,ESE,115,0.0,0.0,85,0.00,,CLR,0.00,VWS V14.01,2013-05-01 07:41:00,
2013-05-01 02:46:00,58.0,53.5,29.76,ESE,115,0.0,0.0,85,0.00,,CLR,0.00,VWS V14.01,2013-05-01 07:46:00,
2013-05-01 02:51:00,57.9,53.4,29.76,ESE,115,0.0,0.0,85,0.00,,CLR,0.00,VWS V14.01,2013-05-01 07:51:00,
2013-05-01 02:56:00,57.8,53.3,29.77,ESE,115,0.0,0.0,85,0.00,,CLR,0.00,VWS V14.01,2013-05-01 07:56:00,
2013-05-01 03:00:00,57.7,53.2,29.77,ESE,115,0.0,1.0,85,0.00,,CLR,0.00,VWS V14.01,2013-05-01 08:00:00,
2013-05-01 03:01:00,57.7,53.2,29.76,ESE,115,0.0,0.0,85,0.00,,CLR,0.00,VWS V14.01,2013-05-01 08:01:00,
2013-05-01 03:06:00,57.7,53.5,29.76,ESE,115,0.0,0.0,86,0.00,,CLR,0.00,VWS V14.01,2013-05-01 08:06:00,
2013-05-01 03:11:00,57.7,53.5,29.77,ESE,115,0.0,0.0,86,0.00,,CLR,0.00,VWS V14.01,2013-05-01 08:11:00,
2013-05-01 03:16:00,57.8,53.3,29.77,ESE,115,0.0,0.0,85,0.00,,CLR,0.00,VWS V14.01,2013-05-01 08:16:00,
2013-05-01 03:21:00,57.9,53.7,29.77,ESE,115,0.0,0.0,86,0.00,,CLR,0.00,VWS V14.01,2013-05-01 08:21:00,
2013-05-01 03:26:00,58.1,53.6,29.77,ESE,115,0.0,0.0,85,0.00,,CLR,0.00,VWS V14.01,2013-05-01 08:26:00,
2013-05-01 03:30:00,58.1,53.6,29.77,ESE,115,0.0,0.0,85,0.00,,CLR,0.00,VWS V14.01,2013-05-01 08:30:00,
2013-05-01 03:31:00,58.2,53.7,29.77,ESE,115,0.0,0.0,85,0.00,,CLR,0.00,VWS V14.01,2013-05-01 08:31:00,
2013-05-01 03:36:00,58.2,53.7,29.77,ESE,115,0.0,0.0,85,0.00,,CLR,0.00,VWS V14.01,2013-05-01 08:36:00,
2013-05-01 03:42:00,58.1,53.6,29.77,ESE,115,0.0,0.0,85,0.00,,CLR,0.00,VWS V14.01,2013-05-01 08:42:00,
2013-05-01 03:47:00,58.1,53.6,29.77,ESE,115,0.0,0.0,85,0.00,,CLR,0.00,VWS V14.01,2013-05-01 08:47:00,
2013-05-01 03:52:00,57.9,53.4,29.77,ESE,115,0.0,0.0,85,0.00,,CLR,0.00,VWS V14.01,2013-05-01 08:52:00,
2013-05-01 03:57:00,57.8,53.3,29.78,ESE,115,0.0,0.0,85,0.00,,CLR,0.00,VWS V14.01,2013-05-01 08:57:00,
2013-05-01 04:00:00,57.7,53.5,29.78,ESE,115,0.0,0.0,86,0.00,,CLR,0.00,VWS V14.01,2013-05-01 09:00:00,
2013-05-01 04:02:00,57.7,53.5,29.78,ESE,115,0.0,0.0,86,0.00,,CLR,0.00,VWS V14.01,2013-05-01 09:02:00,
2013-05-01 04:07:00,57.7,53.5,29.78,ESE,115,0.0,0.0,86,0.00,,CLR,0.00,VWS V14.01,2013-05-01 09:07:00,
2013-05-01 04:12:00,57.7,53.9,29.78,ESE,115,0.0,0.0,87,0.00,,CLR,0.00,VWS V14.01,2013-05-01 09:12:00,
2013-05-01 04:17:00,57.7,53.9,29.78,ESE,115,0.0,0.0,87,0.00,,CLR,0.00,VWS V14.01,2013-05-01 09:17:00,
2013-05-01 04:22:00,57.8,54.0,29.78,ESE,115,0.0,0.0,87,0.00,,CLR,0.00,VWS V14.01,2013-05-01 09:22:00,
2013-05-01 04:27:00,58.0,53.8,29.78,ESE,115,0.0,0.0,86,0.00,,CLR,0.00,VWS V14.01,2013-05-01 09:27:00,
2013-05-01 04:30:00,58.0,54.2,29.78,ESE,115,0.0,0.0,87,0.00,,CLR,0.00,VWS V14.01,2013-05-01 09:30:00,
2013-05-01 04:32:00,58.1,54.3,29.79,ESE,115,0.0,0.0,87,0.00,,CLR,0.00,VWS V14.01,2013-05-01 09:32:00,
2013-05-01 04:37:00,58.1,53.9,29.79,ESE,115,0.0,0.0,86,0.00,,CLR,0.00,VWS V14.01,2013-05-01 09:37:00,
2013-05-01 04:42:00,58.1,53.9,29.79,ESE,115,0.0,0.0,86,0.00,,CLR,0.00,VWS V14.01,2013-05-01 09:42:00,
2013-05-01 04:48:00,58.2,54.4,29.79,ESE,115,0.0,0.0,87,0.00,,CLR,0.00,VWS V14.01,2013-05-01 09:48:00,
2013-05-01 04:53:00,58.2,54.4,29.79,ESE,115,0.0,0.0,87,0.00,,SCT060,0.00,VWS V14.01,2013-05-01 09:53:00,
2013-05-01 04:58:00,58.2,54.0,29.79,ESE,115,0.0,0.0,86,0.00,,SCT060,0.00,VWS V14.01,2013-05-01 09:58:00,
2013-05-01 05:00:00,58.2,54.0,29.79,ESE,115,0.0,0.0,86,0.00,,CLR,0.00,VWS V14.01,2013-05-01 10:00:00,
2013-05-01 05:03:00,58.2,54.0,29.79,ESE,115,0.0,0.0,86,0.00,,SCT060,0.00,VWS V14.01,2013-05-01 10:03:00,
2013-05-01 05:08:00,58.2,54.0,29.79,ESE,115,0.0,0.0,86,0.00,,SCT060,0.00,VWS V14.01,2013-05-01 10:08:00,
2013-05-01 05:13:00,58.2,54.0,29.79,ESE,115,0.0,0.0,86,0.00,,SCT060,0.00,VWS V14.01,2013-05-01 10:13:00,
2013-05-01 05:18:00,58.1,53.9,29.79,ESE,115,0.0,0.0,86,0.00,,SCT060,0.00,VWS V14.01,2013-05-01 10:18:00,
2013-05-01 05:23:00,58.0,53.8,29.79,ESE,115,0.0,0.0,86,0.00,,SCT060,0.00,VWS V14.01,2013-05-01 10:23:00,
2013-05-01 05:28:00,57.9,53.7,29.80,ESE,115,0.0,0.0,86,0.00,,SCT060,0.00,VWS V14.01,2013-05-01 10:28:00,
2013-05-01 05:30:00,57.9,53.7,29.80,ESE,115,0.0,0.0,86,0.00,,CLR,0.00,VWS V14.01,2013-05-01 10:30:00,
2013-05-01 05:33:00,57.8,53.7,29.80,ESE,115,0.0,0.0,86,0.00,,SCT060,0.00,VWS V14.01,2013-05-01 10:33:00,
2013-05-01 05:38:00,57.6,53.8,29.80,ESE,115,0.0,0.0,87,0.00,,SCT060,0.00,VWS V14.01,2013-05-01 10:38:00,
2013-05-01 05:44:00,57.4,53.6,29.80,ESE,115,0.0,0.0,87,0.00,,SCT060,0.00,VWS V14.01,2013-05-01 10:44:00,
2013-05-01 05:49:00,57.3,53.8,29.80,ESE,115,0.0,0.0,88,0.00,,SCT060,0.00,VWS V14.01,2013-05-01 10:49:00,
2013-05-01 05:54:00,57.1,53.6,29.80,ESE,115,0.0,0.0,88,0.00,,BKN060,0.00,VWS V14.01,2013-05-01 10:54:00,
2013-05-01 05:59:00,56.9,53.4,29.80,ESE,115,0.0,0.0,88,0.00,,BKN060,0.00,VWS V14.01,2013-05-01 10:59:00,
2013-05-01 06:00:00,56.8,53.3,29.80,ESE,115,0.0,0.0,88,0.00,,CLR,0.00,VWS V14.01,2013-05-01 11:00:00,
2013-05-01 06:04:00,56.6,53.4,29.80,ESE,115,0.0,0.0,89,0.00,,BKN060,0.00,VWS V14.01,2013-05-01 11:04:00,
2013-05-01 06:09:00,56.3,53.1,29.80,ESE,115,0.0,0.0,89,0.00,,BKN060,0.00,VWS V14.01,2013-05-01 11:09:00,
2013-05-01 06:14:00,56.1,52.9,29.81,ESE,115,0.0,0.0,89,0.00,,BKN060,0.00,VWS V14.01,2013-05-01 11:14:00,
2013-05-01 06:19:00,56.0,53.1,29.81,ESE,115,0.0,0.0,90,0.00,,BKN060,0.00,VWS V14.01,2013-05-01 11:19:00,
2013-05-01 06:24:00,56.0,53.1,29.81,ESE,115,0.0,0.0,90,0.00,,BKN060,0.00,VWS V14.01,2013-05-01 11:24:00,
2013-05-01 06:29:00,56.0,53.4,29.81,ESE,110,0.0,0.0,91,0.00,,BKN060,0.00,VWS V14.01,2013-05-01 11:29:00,
2013-05-01 06:30:00,56.0,53.4,29.81,ESE,110,0.0,0.0,91,0.00,,CLR,0.00,VWS V14.01,2013-05-01 11:30:00,
2013-05-01 06:34:00,55.9,53.3,29.81,ESE,110,0.0,0.0,91,0.00,,BKN060,0.00,VWS V14.01,2013-05-01 11:34:00,
2013-05-01 06:39:00,56.0,53.4,29.81,ESE,110,0.0,0.0,91,0.00,,BKN060,0.00,VWS V14.01,2013-05-01 11:39:00,
2013-05-01 06:44:00,56.1,53.5,29.81,ESE,110,0.0,0.0,91,0.00,,BKN060,0.00,VWS V14.01,2013-05-01 11:44:00,
2013-05-01 06:50:00,56.1,53.5,29.81,ESE,110,0.0,0.0,91,0.00,,BKN060,0.00,VWS V14.01,2013-05-01 11:50:00,
2013-05-01 06:55:00,56.3,54.0,29.81,ESE,103,0.0,0.0,92,0.00,,CLR,0.00,VWS V14.01,2013-05-01 11:55:00,
2013-05-01 07:00:00,56.4,53.8,29.81,ESE,103,0.0,0.0,91,0.00,,CLR,0.00,VWS V14.01,2013-05-01 12:00:00,
2013-05-01 07:05:00,56.4,53.8,29.81,ESE,103,0.0,0.0,91,0.00,,CLR,0.00,VWS V14.01,2013-05-01 12:05:00,
2013-05-01 07:10:00,56.5,53.9,29.82,ESE,103,0.0,0.0,91,0.00,,CLR,0.00,VWS V14.01,2013-05-01 12:10:00,
2013-05-01 07:15:00,56.7,54.1,29.82,ESE,103,0.0,0.0,91,0.00,,CLR,0.00,VWS V14.01,2013-05-01 12:15:00,
2013-05-01 07:20:00,56.8,54.2,29.82,ESE,103,0.0,0.0,91,0.00,,CLR,0.00,VWS V14.01,2013-05-01 12:20:00,
2013-05-01 07:25:00,57.0,54.7,29.82,ESE,103,0.0,0.0,92,0.00,,CLR,0.00,VWS V14.01,2013-05-01 12:25:00,
2013-05-01 07:30:00,57.2,54.9,29.82,ESE,103,0.0,0.0,92,0.00,,CLR,0.00,VWS V14.01,2013-05-01 12:30:00,
2013-05-01 07:35:00,57.5,55.2,29.82,ESE,103,0.0,0.0,92,0.00,,CLR,0.00,VWS V14.01,2013-05-01 12:35:00,
2013-05-01 07:40:00,58.0,56.0,29.82,ESE,103,0.0,0.0,93,0.00,,CLR,0.00,VWS V14.01,2013-05-01 12:40:00,
2013-05-01 07:45:00,58.5,55.9,29.82,ESE,103,0.0,0.0,91,0.00,,CLR,0.00,VWS V14.01,2013-05-01 12:45:00,
2013-05-01 07:51:00,59.3,56.7,29.82,ESE,103,0.0,1.0,91,0.00,,CLR,0.00,VWS V14.01,2013-05-01 12:51:00,
2013-05-01 07:56:00,60.0,56.8,29.83,SE,124,0.0,1.0,89,0.00,,CLR,0.00,VWS V14.01,2013-05-01 12:56:00,
2013-05-01 08:00:00,60.5,56.9,29.83,SE,129,0.0,1.0,88,0.00,,CLR,0.00,VWS V14.01,2013-05-01 13:00:00,
2013-05-01 08:01:00,60.7,57.1,29.83,SE,129,0.0,0.0,88,0.00,,CLR,0.00,VWS V14.01,2013-05-01 13:01:00,
2013-05-01 08:06:00,61.2,57.3,29.83,ESE,113,0.0,3.0,87,0.00,,CLR,0.00,VWS V14.01,2013-05-01 13:06:00,
2013-05-01 08:11:00,61.8,57.2,29.83,ESE,112,0.0,3.0,85,0.00,,CLR,0.00,VWS V14.01,2013-05-01 13:11:00,
2013-05-01 08:16:00,62.2,57.6,29.83,SE,135,0.0,4.0,85,0.00,,CLR,0.00,VWS V14.01,2013-05-01 13:16:00,
2013-05-01 08:21:00,62.5,57.6,29.83,SE,134,0.0,4.0,84,0.00,,CLR,0.00,VWS V14.01,2013-05-01 13:21:00,
2013-05-01 08:26:00,62.8,57.9,29.83,ESE,109,0.0,4.0,84,0.00,,CLR,0.00,VWS V14.01,2013-05-01 13:26:00,
2013-05-01 08:30:00,63.1,58.2,29.83,SE,133,1.0,4.0,84,0.00,,CLR,0.00,VWS V14.01,2013-05-01 13:30:00,
2013-05-01 08:31:00,63.2,58.0,29.84,ESE,123,1.0,1.0,83,0.00,,CLR,0.00,VWS V14.01,2013-05-01 13:31:00,
2013-05-01 08:36:00,63.5,58.2,29.84,SE,137,2.0,3.0,83,0.00,,CLR,0.00,VWS V14.01,2013-05-01 13:36:00,
2013-05-01 08:41:00,63.9,58.6,29.84,SSE,158,2.0,3.0,83,0.00,,CLR,0.00,VWS V14.01,2013-05-01 13:41:00,
2013-05-01 08:46:00,64.4,58.8,29.84,SE,133,0.0,3.0,82,0.00,,CLR,0.00,VWS V14.01,2013-05-01 13:46:00,
2013-05-01 08:52:00,64.9,58.9,29.84,South,173,1.0,7.0,81,0.00,,CLR,0.00,VWS V14.01,2013-05-01 13:52:00,
2013-05-01 08:57:00,65.3,59.3,29.84,East,90,0.0,7.0,81,0.00,,CLR,0.00,VWS V14.01,2013-05-01 13:57:00,
2013-05-01 09:00:00,65.6,59.3,29.84,East,86,0.0,7.0,80,0.00,,CLR,0.00,VWS V14.01,2013-05-01 14:00:00,
2013-05-01 09:02:00,65.8,59.8,29.84,SE,144,2.0,3.0,81,0.00,,CLR,0.00,VWS V14.01,2013-05-01 14:02:00,
2013-05-01 09:07:00,66.3,60.3,29.84,SE,143,1.0,4.0,81,0.00,,CLR,0.00,VWS V14.01,2013-05-01 14:07:00,
2013-05-01 09:12:00,66.8,60.1,29.84,SE,127,3.0,5.0,79,0.00,,CLR,0.00,VWS V14.01,2013-05-01 14:12:00,
2013-05-01 09:17:00,67.5,60.4,29.84,SSE,167,3.0,6.0,78,0.00,,CLR,0.00,VWS V14.01,2013-05-01 14:17:00,
2013-05-01 09:22:00,68.0,60.5,29.84,SSE,168,0.0,6.0,77,0.00,,CLR,0.00,VWS V14.01,2013-05-01 14:22:00,
2013-05-01 09:27:00,68.1,60.3,29.84,ESE,113,1.0,6.0,76,0.00,,CLR,0.00,VWS V14.01,2013-05-01 14:27:00,
2013-05-01 09:30:00,68.3,61.5,29.84,SE,132,0.0,6.0,79,0.00,,CLR,0.00,VWS V14.01,2013-05-01 14:30:00,
2013-05-01 09:32:00,68.5,61.0,29.84,ESE,111,3.0,3.0,77,0.00,,CLR,0.00,VWS V14.01,2013-05-01 14:32:00,
2013-05-01 09:37:00,68.7,60.8,29.84,SE,137,0.0,5.0,76,0.00,,CLR,0.00,VWS V14.01,2013-05-01 14:37:00,
2013-05-01 09:42:00,68.6,60.4,29.85,SE,139,0.0,5.0,75,0.00,,CLR,0.00,VWS V14.01,2013-05-01 14:42:00,
2013-05-01 09:48:00,68.5,60.6,29.85,SE,126,1.0,5.0,76,0.00,,CLR,0.00,VWS V14.01,2013-05-01 14:48:00,
2013-05-01 09:53:00,68.4,60.9,29.84,SE,137,2.0,5.0,77,0.00,,CLR,0.00,VWS V14.01,2013-05-01 14:53:00,
2013-05-01 09:58:00,68.4,60.9,29.84,ESE,110,1.0,5.0,77,0.00,,CLR,0.00,VWS V14.01,2013-05-01 14:58:00,
2013-05-01 10:00:00,68.4,60.9,29.85,SSE,148,2.0,5.0,77,0.00,,CLR,0.00,VWS V14.01,2013-05-01 15:00:00,
2013-05-01 10:03:00,68.4,60.9,29.85,ESE,121,0.0,3.0,77,0.00,,CLR,0.00,VWS V14.01,2013-05-01 15:03:00,
2013-05-01 10:08:00,68.3,60.8,29.85,East,82,1.0,3.0,77,0.00,,CLR,0.00,VWS V14.01,2013-05-01 15:08:00,
2013-05-01 10:13:00,68.2,61.1,29.85,ESE,116,0.0,3.0,78,0.00,,CLR,0.00,VWS V14.01,2013-05-01 15:13:00,
2013-05-01 10:18:00,68.1,60.3,29.85,ESE,103,1.0,3.0,76,0.00,,CLR,0.00,VWS V14.01,2013-05-01 15:18:00,
2013-05-01 10:23:00,68.2,60.7,29.85,SE,142,0.0,3.0,77,0.00,,CLR,0.00,VWS V14.01,2013-05-01 15:23:00,
2013-05-01 10:28:00,68.7,61.6,29.85,SE,144,0.0,3.0,78,0.00,,CLR,0.00,VWS V14.01,2013-05-01 15:28:00,
2013-05-01 10:30:00,68.9,62.1,29.85,ESE,119,0.0,3.0,79,0.00,,CLR,0.00,VWS V14.01,2013-05-01 15:30:00,
2013-05-01 10:33:00,69.6,62.1,29.85,ESE,111,0.0,3.0,77,0.00,,CLR,0.00,VWS V14.01,2013-05-01 15:33:00,
2013-05-01 10:38:00,70.2,62.3,29.86,SSE,165,0.0,3.0,76,0.00,,CLR,0.00,VWS V14.01,2013-05-01 15:38:00,
2013-05-01 10:43:00,70.5,61.8,29.86,ESE,106,3.0,5.0,74,0.00,,CLR,0.00,VWS V14.01,2013-05-01 15:43:00,
2013-05-01 10:49:00,70.6,61.9,29.86,ESE,104,2.0,5.0,74,0.00,,CLR,0.00,VWS V14.01,2013-05-01 15:49:00,
2013-05-01 10:54:00,70.7,62.0,29.86,ESE,107,0.0,5.0,74,0.00,,CLR,0.00,VWS V14.01,2013-05-01 15:54:00,
2013-05-01 10:59:00,71.0,63.4,29.87,SE,130,1.0,5.0,77,0.00,,CLR,0.00,VWS V14.01,2013-05-01 15:59:00,
2013-05-01 11:00:00,71.0,62.7,29.87,ESE,111,4.0,5.0,75,0.00,,CLR,0.00,VWS V14.01,2013-05-01 16:00:00,
2013-05-01 11:04:00,71.3,62.6,29.87,SE,132,1.0,5.0,74,0.00,,CLR,0.00,VWS V14.01,2013-05-01 16:04:00,
2013-05-01 11:09:00,72.2,63.5,29.87,ESE,111,3.0,5.0,74,0.00,,CLR,0.00,VWS V14.01,2013-05-01 16:09:00,
2013-05-01 11:14:00,73.1,63.5,29.87,East,90,0.0,5.0,72,0.00,,CLR,0.00,VWS V14.01,2013-05-01 16:14:00,
2013-05-01 11:19:00,73.4,63.0,29.87,ESE,107,0.0,5.0,70,0.00,,CLR,0.00,VWS V14.01,2013-05-01 16:19:00,
2013-05-01 11:24:00,73.7,62.9,29.87,South,169,0.0,6.0,69,0.00,,CLR,0.00,VWS V14.01,2013-05-01 16:24:00,
2013-05-01 11:29:00,74.2,64.2,29.87,SE,128,1.0,6.0,71,0.00,,CLR,0.00,VWS V14.01,2013-05-01 16:29:00,
2013-05-01 11:30:00,74.2,64.2,29.87,ESE,117,1.0,6.0,71,0.00,,CLR,0.00,VWS V14.01,2013-05-01 16:30:00,
2013-05-01 11:34:00,74.8,63.5,29.87,NE,55,6.0,6.0,68,0.00,,CLR,0.00,VWS V14.01,2013-05-01 16:34:00,
2013-05-01 11:39:00,75.1,63.8,29.87,SE,128,1.0,6.0,68,0.00,,CLR,0.00,VWS V14.01,2013-05-01 16:39:00,
2013-05-01 11:44:00,75.6,63.9,29.87,SSE,161,3.0,6.0,67,0.00,,CLR,0.00,VWS V14.01,2013-05-01 16:44:00,
2013-05-01 11:50:00,75.5,63.4,29.86,SSW,199,0.0,7.0,66,0.00,,CLR,0.00,VWS V14.01,2013-05-01 16:50:00,
2013-05-01 11:55:00,75.7,64.0,29.86,North,5,0.0,7.0,67,0.00,,CLR,0.00,VWS V14.01,2013-05-01 16:55:00,
2013-05-01 12:00:00,76.3,63.2,29.87,SSE,152,0.0,3.0,64,0.00,,CLR,0.00,VWS V14.01,2013-05-01 17:00:00,
2013-05-01 12:05:00,76.2,63.6,29.86,SE,141,0.0,6.0,65,0.00,,CLR,0.00,VWS V14.01,2013-05-01 17:05:00,
2013-05-01 12:10:00,76.6,64.8,29.86,SSE,149,0.0,7.0,67,0.00,,CLR,0.00,VWS V14.01,2013-05-01 17:10:00,
2013-05-01 12:15:00,77.4,66.0,29.87,East,84,7.0,7.0,68,0.00,,CLR,0.00,VWS V14.01,2013-05-01 17:15:00,
2013-05-01 12:20:00,78.0,64.4,29.86,SE,144,0.0,7.0,63,0.00,,CLR,0.00,VWS V14.01,2013-05-01 17:20:00,
2013-05-01 12:25:00,77.9,64.3,29.87,SE,141,2.0,7.0,63,0.00,,CLR,0.00,VWS V14.01,2013-05-01 17:25:00,
2013-05-01 12:30:00,78.1,64.9,29.86,ESE,119,3.0,3.0,64,0.00,,CLR,0.00,VWS V14.01,2013-05-01 17:30:00,
2013-05-01 12:35:00,78.6,64.0,29.86,SE,137,3.0,5.0,61,0.00,,CLR,0.00,VWS V14.01,2013-05-01 17:35:00,
2013-05-01 12:41:00,79.0,63.9,29.86,South,177,1.0,5.0,60,0.00,,CLR,0.00,VWS V14.01,2013-05-01 17:41:00,
2013-05-01 12:46:00,79.2,65.1,29.86,SE,145,1.0,5.0,62,0.00,,CLR,0.00,VWS V14.01,2013-05-01 17:46:00,
2013-05-01 12:51:00,79.3,64.2,29.86,South,180,3.0,5.0,60,0.00,,CLR,0.00,VWS V14.01,2013-05-01 17:51:00,
2013-05-01 12:56:00,79.0,64.9,29.86,ESE,121,3.0,5.0,62,0.00,,CLR,0.00,VWS V14.01,2013-05-01 17:56:00,
2013-05-01 13:00:00,78.9,64.8,29.86,SE,130,2.0,7.0,62,0.00,,CLR,0.00,VWS V14.01,2013-05-01 18:00:00,
2013-05-01 13:01:00,78.9,64.8,29.86,ESE,114,2.0,3.0,62,0.00,,CLR,0.00,VWS V14.01,2013-05-01 18:01:00,
2013-05-01 13:06:00,78.9,65.2,29.86,SE,125,3.0,7.0,63,0.00,,CLR,0.00,VWS V14.01,2013-05-01 18:06:00,
2013-05-01 13:11:00,79.1,65.4,29.86,SE,138,3.0,7.0,63,0.00,,CLR,0.00,VWS V14.01,2013-05-01 18:11:00,
2013-05-01 13:16:00,79.3,64.2,29.86,SE,140,1.0,7.0,60,0.00,,CLR,0.00,VWS V14.01,2013-05-01 18:16:00,
2013-05-01 13:21:00,79.3,63.7,29.86,South,170,0.0,8.0,59,0.00,,CLR,0.00,VWS V14.01,2013-05-01 18:21:00,
2013-05-01 13:26:00,79.0,63.9,29.86,ESE,120,1.0,8.0,60,0.00,,CLR,0.00,VWS V14.01,2013-05-01 18:26:00,
2013-05-01 13:30:00,78.9,63.8,29.86,ESE,116,4.0,8.0,60,0.00,,CLR,0.00,VWS V14.01,2013-05-01 18:30:00,
2013-05-01 13:31:00,78.9,64.3,29.86,SE,132,3.0,6.0,61,0.00,,CLR,0.00,VWS V14.01,2013-05-01 18:31:00,
2013-05-01 13:36:00,78.9,63.4,29.86,SSW,194,1.0,6.0,59,0.00,,CLR,0.00,VWS V14.01,2013-05-01 18:36:00,
2013-05-01 13:42:00,78.6,63.1,29.86,SSE,149,4.0,11.0,59,0.00,,CLR,0.00,VWS V14.01,2013-05-01 18:42:00,
2013-05-01 13:47:00,78.1,63.1,29.86,SE,141,0.0,11.0,60,0.00,,CLR,0.00,VWS V14.01,2013-05-01 18:47:00,
2013-05-01 13:52:00,78.0,63.9,29.86,East,92,2.0,11.0,62,0.00,,BKN090,0.00,VWS V14.01,2013-05-01 18:52:00,
2013-05-01 13:57:00,77.9,63.8,29.86,SSE,153,2.0,11.0,62,0.00,,BKN090,0.00,VWS V14.01,2013-05-01 18:57:00,
2013-05-01 14:00:00,77.9,64.3,29.86,East,91,0.0,11.0,63,0.00,,CLR,0.00,VWS V14.01,2013-05-01 19:00:00,
2013-05-01 14:02:00,78.0,64.4,29.86,SSE,151,4.0,4.0,63,0.00,,BKN090,0.00,VWS V14.01,2013-05-01 19:02:00,
2013-05-01 14:07:00,78.3,63.8,29.85,ESE,121,2.0,5.0,61,0.00,,BKN090,0.00,VWS V14.01,2013-05-01 19:07:00,
2013-05-01 14:12:00,78.2,64.6,29.85,ESE,110,4.0,10.0,63,0.00,,BKN090,0.00,VWS V14.01,2013-05-01 19:12:00,
2013-05-01 14:17:00,78.2,64.1,29.85,SE,130,0.0,10.0,62,0.00,,BKN090,0.00,VWS V14.01,2013-05-01 19:17:00,
2013-05-01 14:22:00,78.8,65.6,29.85,SE,145,3.0,10.0,64,0.00,,BKN090,0.00,VWS V14.01,2013-05-01 19:22:00,
2013-05-01 14:27:00,78.8,63.3,29.85,South,171,2.0,11.0,59,0.00,,BKN090,0.00,VWS V14.01,2013-05-01 19:27:00,
2013-05-01 14:30:00,78.6,63.6,29.85,SSE,166,1.0,11.0,60,0.00,,CLR,0.00,VWS V14.01,2013-05-01 19:30:00,
2013-05-01 14:32:00,78.6,64.0,29.85,SSE,165,2.0,3.0,61,0.00,,BKN090,0.00,VWS V14.01,2013-05-01 19:32:00,
2013-05-01 14:37:00,78.7,63.7,29.85,SSE,160,7.0,7.0,60,0.00,,BKN090,0.00,VWS V14.01,2013-05-01 19:37:00,
2013-05-01 14:43:00,78.2,62.7,29.85,SSE,148,2.0,8.0,59,0.00,,BKN090,0.00,VWS V14.01,2013-05-01 19:43:00,
2013-05-01 14:48:00,77.8,63.3,29.85,South,170,3.0,10.0,61,0.00,,BKN090,0.00,VWS V14.01,2013-05-01 19:48:00,
2013-05-01 14:53:00,77.9,62.9,29.85,South,181,4.0,10.0,60,0.00,,FEW039,0.00,VWS V14.01,2013-05-01 19:53:00,
2013-05-01 14:58:00,77.6,62.6,29.85,South,185,5.0,10.0,60,0.00,,FEW039,0.00,VWS V14.01,2013-05-01 19:58:00,
2013-05-01 15:00:00,77.6,63.1,29.85,South,184,0.0,10.0,61,0.00,,CLR,0.00,VWS V14.01,2013-05-01 20:00:00,
2013-05-01 15:03:00,77.8,63.3,29.85,SE,136,0.0,5.0,61,0.00,,FEW039,0.00,VWS V14.01,2013-05-01 20:03:00,
2013-05-01 15:08:00,77.9,62.9,29.85,SE,134,2.0,9.0,60,0.00,,FEW039,0.00,VWS V14.01,2013-05-01 20:08:00,
2013-05-01 15:13:00,77.5,62.5,29.86,South,175,3.0,9.0,60,0.00,,FEW039,0.00,VWS V14.01,2013-05-01 20:13:00,
2013-05-01 15:18:00,77.2,62.2,29.86,ESE,107,11.0,11.0,60,0.00,,FEW039,0.00,VWS V14.01,2013-05-01 20:18:00,
2013-05-01 15:23:00,77.4,64.3,29.86,SSE,163,4.0,11.0,64,0.00,,FEW039,0.00,VWS V14.01,2013-05-01 20:23:00,
2013-05-01 15:28:00,77.9,64.8,29.86,South,176,3.0,11.0,64,0.00,,FEW039,0.00,VWS V14.01,2013-05-01 20:28:00,
2013-05-01 15:30:00,78.0,63.9,29.85,SE,144,5.0,11.0,62,0.00,,CLR,0.00,VWS V14.01,2013-05-01 20:30:00,
2013-05-01 15:33:00,78.2,63.2,29.86,SE,146,7.0,10.0,60,0.00,,FEW039,0.00,VWS V14.01,2013-05-01 20:33:00,
2013-05-01 15:38:00,77.9,62.9,29.86,ESE,112,4.0,10.0,60,0.00,,FEW039,0.00,VWS V14.01,2013-05-01 20:38:00,
2013-05-01 15:44:00,78.0,63.0,29.85,South,180,2.0,10.0,60,0.00,,FEW039,0.00,VWS V14.01,2013-05-01 20:44:00,
2013-05-01 15:49:00,78.3,63.3,29.85,South,176,2.0,10.0,60,0.00,,FEW039,0.00,VWS V14.01,2013-05-01 20:49:00,
2013-05-01 15:54:00,78.2,62.7,29.85,South,173,1.0,10.0,59,0.00,,SCT049,0.00,VWS V14.01,2013-05-01 20:54:00,
2013-05-01 15:59:00,77.9,62.4,29.85,SSE,157,2.0,10.0,59,0.00,,SCT049,0.00,VWS V14.01,2013-05-01 20:59:00,
2013-05-01 16:00:00,77.8,62.3,29.85,SSE,149,2.0,10.0,59,0.00,,CLR,0.00,VWS V14.01,2013-05-01 21:00:00,
2013-05-01 16:04:00,77.7,63.7,29.85,SE,125,2.0,5.0,62,0.00,,SCT049,0.00,VWS V14.01,2013-05-01 21:04:00,
2013-05-01 16:09:00,77.7,63.7,29.85,SSE,168,4.0,6.0,62,0.00,,SCT049,0.00,VWS V14.01,2013-05-01 21:09:00,
2013-05-01 16:14:00,77.0,62.5,29.86,SSE,166,4.0,9.0,61,0.00,,SCT049,0.00,VWS V14.01,2013-05-01 21:14:00,
2013-05-01 16:19:00,75.7,62.2,29.86,SE,140,2.0,9.0,63,0.00,,SCT049,0.00,VWS V14.01,2013-05-01 21:19:00,
2013-05-01 16:24:00,75.0,62.9,29.86,SE,127,3.0,9.0,66,0.00,,SCT049,0.00,VWS V14.01,2013-05-01 21:24:00,
2013-05-01 16:29:00,74.8,63.1,29.85,SE,142,1.0,9.0,67,0.00,,SCT049,0.00,VWS V14.01,2013-05-01 21:29:00,
2013-05-01 16:30:00,74.7,63.0,29.85,South,173,3.0,9.0,67,0.00,,CLR,0.00,VWS V14.01,2013-05-01 21:30:00,
2013-05-01 16:34:00,74.6,62.9,29.86,SSE,153,1.0,7.0,67,0.00,,SCT049,0.00,VWS V14.01,2013-05-01 21:34:00,
2013-05-01 16:39:00,74.6,63.3,29.86,South,171,2.0,7.0,68,0.00,,SCT049,0.00,VWS V14.01,2013-05-01 21:39:00,
2013-05-01 16:45:00,74.6,63.8,29.86,SE,144,2.0,7.0,69,0.00,,SCT049,0.00,VWS V14.01,2013-05-01 21:45:00,
2013-05-01 16:50:00,74.6,63.3,29.86,ESE,115,3.0,7.0,68,0.00,,SCT049,0.00,VWS V14.01,2013-05-01 21:50:00,
2013-05-01 16:55:00,74.6,63.8,29.85,ESE,121,1.0,7.0,69,0.00,,-RA,0.00,VWS V14.01,2013-05-01 21:55:00,
2013-05-01 17:00:00,74.6,63.3,29.85,SE,131,3.0,4.0,68,0.00,,-RA,0.00,VWS V14.01,2013-05-01 22:00:00,
2013-05-01 17:05:00,74.8,63.1,29.85,SSE,155,1.0,7.0,67,0.00,,-RA,0.00,VWS V14.01,2013-05-01 22:05:00,
2013-05-01 17:10:00,74.9,62.8,29.85,South,169,1.0,7.0,66,0.00,,-RA,0.00,VWS V14.01,2013-05-01 22:10:00,
2013-05-01 17:15:00,74.8,63.5,29.85,SSE,165,1.0,7.0,68,0.00,,-RA,0.00,VWS V14.01,2013-05-01 22:15:00,
2013-05-01 17:20:00,74.8,63.5,29.85,South,174,1.0,7.0,68,0.00,,-RA,0.00,VWS V14.01,2013-05-01 22:20:00,
2013-05-01 17:25:00,74.6,63.8,29.86,South,172,2.0,7.0,69,0.00,,-RA,0.00,VWS V14.01,2013-05-01 22:25:00,
2013-05-01 17:30:00,74.3,63.5,29.85,ESE,111,3.0,3.0,69,0.00,,-RA,0.00,VWS V14.01,2013-05-01 22:30:00,
2013-05-01 17:35:00,74.1,63.3,29.85,SSE,167,0.0,3.0,69,0.00,,-RA,0.00,VWS V14.01,2013-05-01 22:35:00,
2013-05-01 17:41:00,73.9,63.5,29.86,SSW,193,0.0,3.0,70,0.00,,-RA,0.00,VWS V14.01,2013-05-01 22:41:00,
2013-05-01 17:46:00,73.8,63.8,29.86,SSW,193,0.0,3.0,71,0.00,,-RA,0.00,VWS V14.01,2013-05-01 22:46:00,
2013-05-01 17:51:00,73.7,64.1,29.86,SSW,193,0.0,3.0,72,0.00,,FEW080,0.00,VWS V14.01,2013-05-01 22:51:00,
2013-05-01 17:56:00,73.7,64.1,29.86,SSE,166,0.0,3.0,72,0.00,,FEW080,0.00,VWS V14.01,2013-05-01 22:56:00,
2013-05-01 18:00:00,73.6,64.0,29.86,SSE,157,0.0,3.0,72,0.00,,CLR,0.00,VWS V14.01,2013-05-01 23:00:00,
2013-05-01 18:01:00,73.6,64.0,29.86,SSE,157,0.0,1.0,72,0.00,,FEW080,0.00,VWS V14.01,2013-05-01 23:01:00,
2013-05-01 18:06:00,73.5,63.9,29.86,SSE,157,0.0,1.0,72,0.00,,FEW080,0.00,VWS V14.01,2013-05-01 23:06:00,
2013-05-01 18:11:00,73.5,64.3,29.86,SSE,154,0.0,1.0,73,0.00,,FEW080,0.00,VWS V14.01,2013-05-01 23:11:00,
2013-05-01 18:16:00,73.4,64.2,29.86,ESE,122,0.0,2.0,73,0.00,,FEW080,0.00,VWS V14.01,2013-05-01 23:16:00,
2013-05-01 18:21:00,73.3,64.1,29.86,SE,132,0.0,2.0,73,0.00,,FEW080,0.00,VWS V14.01,2013-05-01 23:21:00,
2013-05-01 18:26:00,73.3,64.1,29.86,South,169,0.0,4.0,73,0.00,,FEW080,0.00,VWS V14.01,2013-05-01 23:26:00,
2013-05-01 18:30:00,73.2,64.0,29.86,ESE,116,1.0,4.0,73,0.00,,CLR,0.00,VWS V14.01,2013-05-01 23:30:00,
2013-05-01 18:31:00,73.2,64.0,29.86,SE,129,1.0,2.0,73,0.00,,FEW080,0.00,VWS V14.01,2013-05-01 23:31:00,
2013-05-01 18:36:00,73.1,63.5,29.85,ESE,117,0.0,4.0,72,0.00,,FEW080,0.00,VWS V14.01,2013-05-01 23:36:00,
2013-05-01 18:42:00,73.0,63.5,29.86,SE,129,0.0,4.0,72,0.00,,FEW080,0.00,VWS V14.01,2013-05-01 23:42:00,
2013-05-01 18:47:00,73.0,63.5,29.86,SE,136,0.0,4.0,72,0.00,,FEW080,0.00,VWS V14.01,2013-05-01 23:47:00,
2013-05-01 18:52:00,72.9,63.3,29.86,SSE,148,1.0,4.0,72,0.00,,CLR,0.00,VWS V14.01,2013-05-01 23:52:00,
2013-05-01 18:57:00,72.8,63.3,29.86,SE,124,0.0,4.0,72,0.00,,CLR,0.00,VWS V14.01,2013-05-01 23:57:00,
2013-05-01 19:00:00,72.7,63.2,29.86,SE,130,1.0,4.0,72,0.00,,CLR,0.00,VWS V14.01,2013-05-02 00:00:00,
2013-05-01 19:02:00,72.6,63.5,29.86,ESE,120,2.0,2.0,73,0.00,,CLR,0.00,VWS V14.01,2013-05-02 00:02:00,
2013-05-01 19:07:00,72.6,63.5,29.86,ESE,115,0.0,2.0,73,0.00,,CLR,0.00,VWS V14.01,2013-05-02 00:07:00,
2013-05-01 19:12:00,72.5,63.4,29.86,SE,128,1.0,3.0,73,0.00,,CLR,0.00,VWS V14.01,2013-05-02 00:12:00,
2013-05-01 19:17:00,72.3,63.2,29.86,SE,126,0.0,3.0,73,0.00,,CLR,0.00,VWS V14.01,2013-05-02 00:17:00,
2013-05-01 19:22:00,72.2,63.1,29.86,SSE,155,0.0,3.0,73,0.00,,CLR,0.00,VWS V14.01,2013-05-02 00:22:00,
2013-05-01 19:27:00,72.1,62.6,29.86,ESE,113,0.0,3.0,72,0.00,,CLR,0.00,VWS V14.01,2013-05-02 00:27:00,
2013-05-01 19:30:00,72.1,63.0,29.86,SE,126,1.0,3.0,73,0.00,,CLR,0.00,VWS V14.01,2013-05-02 00:30:00,
2013-05-01 19:32:00,72.0,62.9,29.86,SE,127,0.0,2.0,73,0.00,,CLR,0.00,VWS V14.01,2013-05-02 00:32:00,
2013-05-01 19:37:00,71.8,62.7,29.86,ESE,116,0.0,2.0,73,0.00,,CLR,0.00,VWS V14.01,2013-05-02 00:37:00,
2013-05-01 19:43:00,71.6,62.9,29.86,SSE,161,0.0,2.0,74,0.00,,CLR,0.00,VWS V14.01,2013-05-02 00:43:00,
2013-05-01 19:48:00,71.4,62.7,29.86,South,171,0.0,2.0,74,0.00,,CLR,0.00,VWS V14.01,2013-05-02 00:48:00,
2013-05-01 19:53:00,71.2,62.5,29.86,SE,128,0.0,2.0,74,0.00,,CLR,0.00,VWS V14.01,2013-05-02 00:53:00,
2013-05-01 19:58:00,71.0,62.3,29.86,SE,125,1.0,2.0,74,0.00,,CLR,0.00,VWS V14.01,2013-05-02 00:58:00,
2013-05-01 20:00:00,70.9,62.6,29.86,ESE,105,0.0,2.0,75,0.00,,CLR,0.00,VWS V14.01,2013-05-02 01:00:00,
2013-05-01 20:03:00,70.7,62.4,29.86,ESE,105,0.0,0.0,75,0.00,,CLR,0.00,VWS V14.01,2013-05-02 01:03:00,
2013-05-01 20:08:00,70.4,62.1,29.86,ESE,109,0.0,1.0,75,0.00,,CLR,0.00,VWS V14.01,2013-05-02 01:08:00,
2013-05-01 20:13:00,70.1,62.2,29.87,ESE,119,1.0,2.0,76,0.00,,CLR,0.00,VWS V14.01,2013-05-02 01:13:00,
2013-05-01 20:18:00,69.9,62.0,29.87,ESE,121,1.0,2.0,76,0.00,,CLR,0.00,VWS V14.01,2013-05-02 01:18:00,
2013-05-01 20:23:00,69.7,61.8,29.86,SE,127,1.0,2.0,76,0.00,,CLR,0.00,VWS V14.01,2013-05-02 01:23:00,
2013-05-01 20:28:00,69.5,61.6,29.87,SE,125,0.0,2.0,76,0.00,,CLR,0.00,VWS V14.01,2013-05-02 01:28:00,
2013-05-01 20:30:00,69.5,61.2,29.87,SE,140,1.0,2.0,75,0.00,,CLR,0.00,VWS V14.01,2013-05-02 01:30:00,
2013-05-01 20:33:00,69.4,61.5,29.87,ESE,121,1.0,3.0,76,0.00,,CLR,0.00,VWS V14.01,2013-05-02 01:33:00,
2013-05-01 20:38:00,69.3,61.4,29.87,SSE,168,0.0,3.0,76,0.00,,CLR,0.00,VWS V14.01,2013-05-02 01:38:00,
2013-05-01 20:44:00,69.3,61.4,29.87,South,169,1.0,3.0,76,0.00,,CLR,0.00,VWS V14.01,2013-05-02 01:44:00,
2013-05-01 20:49:00,69.2,61.0,29.87,SE,130,1.0,3.0,75,0.00,,CLR,0.00,VWS V14.01,2013-05-02 01:49:00,
2013-05-01 20:54:00,69.1,60.8,29.87,South,169,1.0,3.0,75,0.00,,CLR,0.00,VWS V14.01,2013-05-02 01:54:00,
2013-05-01 20:59:00,69.1,61.2,29.87,ESE,111,2.0,3.0,76,0.00,,CLR,0.00,VWS V14.01,2013-05-02 01:59:00,
2013-05-01 21:00:00,69.1,60.8,29.87,SSE,168,1.0,3.0,75,0.00,,CLR,0.00,VWS V14.01,2013-05-02 02:00:00,
2013-05-01 21:04:00,69.1,60.8,29.88,SSE,162,0.0,2.0,75,0.00,,CLR,0.00,VWS V14.01,2013-05-02 02:04:00,
2013-05-01 21:09:00,69.1,61.2,29.88,ESE,122,0.0,2.0,76,0.00,,CLR,0.00,VWS V14.01,2013-05-02 02:09:00,
2013-05-01 21:14:00,69.0,61.1,29.88,SSE,165,1.0,2.0,76,0.00,,CLR,0.00,VWS V14.01,2013-05-02 02:14:00,
2013-05-01 21:19:00,68.9,61.0,29.88,SE,143,0.0,2.0,76,0.00,,CLR,0.00,VWS V14.01,2013-05-02 02:19:00,
2013-05-01 21:24:00,68.7,60.8,29.88,SE,143,0.0,2.0,76,0.00,,CLR,0.00,VWS V14.01,2013-05-02 02:24:00,
2013-05-01 21:29:00,68.4,60.9,29.88,SE,144,0.0,2.0,77,0.00,,CLR,0.00,VWS V14.01,2013-05-02 02:29:00,
2013-05-01 21:30:00,68.4,60.9,29.88,SE,144,0.0,2.0,77,0.00,,CLR,0.00,VWS V14.01,2013-05-02 02:30:00,
2013-05-01 21:34:00,68.1,60.6,29.89,SE,144,0.0,0.0,77,0.00,,CLR,0.00,VWS V14.01,2013-05-02 02:34:00,
2013-05-01 21:40:00,67.8,60.7,29.89,ESE,113,0.0,1.0,78,0.00,,CLR,0.00,VWS V14.01,2013-05-02 02:40:00,
2013-05-01 21:45:00,67.5,60.8,29.89,ESE,113,0.0,1.0,79,0.00,,CLR,0.00,VWS V14.01,2013-05-02 02:45:00,
2013-05-01 21:50:00,67.2,60.5,29.89,ESE,113,0.0,1.0,79,0.00,,CLR,0.00,VWS V14.01,2013-05-02 02:50:00,
2013-05-01 21:55:00,66.9,60.5,29.89,ESE,113,0.0,1.0,80,0.00,,CLR,0.00,VWS V14.01,2013-05-02 02:55:00,
2013-05-01 22:00:00,66.7,60.7,29.89,ESE,113,0.0,0.0,81,0.00,,CLR,0.00,VWS V14.01,2013-05-02 03:00:00,
2013-05-01 22:05:00,66.4,60.4,29.89,ESE,113,0.0,0.0,81,0.00,,CLR,0.00,VWS V14.01,2013-05-02 03:05:00,
2013-05-01 22:10:00,66.0,60.3,29.89,ESE,113,0.0,0.0,82,0.00,,CLR,0.00,VWS V14.01,2013-05-02 03:10:00,
2013-05-01 22:15:00,65.6,60.3,29.89,ESE,113,0.0,0.0,83,0.00,,CLR,0.00,VWS V14.01,2013-05-02 03:15:00,
2013-05-01 22:20:00,65.2,60.2,29.90,ESE,113,0.0,0.0,84,0.00,,CLR,0.00,VWS V14.01,2013-05-02 03:20:00,
2013-05-01 22:25:00,64.9,60.0,29.90,ESE,113,0.0,0.0,84,0.00,,CLR,0.00,VWS V14.01,2013-05-02 03:25:00,
2013-05-01 22:30:00,64.7,60.1,29.90,ESE,113,0.0,0.0,85,0.00,,CLR,0.00,VWS V14.01,2013-05-02 03:30:00,
2013-05-01 22:31:00,64.6,60.0,29.90,ESE,113,0.0,0.0,85,0.00,,CLR,0.00,VWS V14.01,2013-05-02 03:31:00,
2013-05-01 22:36:00,64.4,59.8,29.90,ESE,113,0.0,0.0,85,0.00,,CLR,0.00,VWS V14.01,2013-05-02 03:36:00,
2013-05-01 22:41:00,64.2,59.9,29.91,ESE,113,0.0,0.0,86,0.00,,CLR,0.00,VWS V14.01,2013-05-02 03:41:00,
2013-05-01 22:46:00,64.0,59.7,29.91,ESE,113,0.0,0.0,86,0.00,,CLR,0.00,VWS V14.01,2013-05-02 03:46:00,
2013-05-01 22:51:00,63.8,59.9,29.91,ESE,113,0.0,0.0,87,0.00,,CLR,0.00,VWS V14.01,2013-05-02 03:51:00,
2013-05-01 22:56:00,63.7,59.8,29.91,ESE,113,0.0,0.0,87,0.00,,CLR,0.00,VWS V14.01,2013-05-02 03:56:00,
2013-05-01 23:00:00,63.6,59.7,29.91,ESE,113,0.0,0.0,87,0.00,,CLR,0.00,VWS V14.01,2013-05-02 04:00:00,
2013-05-01 23:01:00,63.6,59.7,29.91,ESE,113,0.0,0.0,87,0.00,,CLR,0.00,VWS V14.01,2013-05-02 04:01:00,
2013-05-01 23:02:00,63.5,59.9,29.91,ESE,113,0.0,0.0,88,0.00,,CLR,0.00,VWS V14.01,2013-05-02 04:02:00,
2013-05-01 23:03:00,63.5,59.9,29.91,ESE,113,0.0,0.0,88,0.00,,CLR,0.00,VWS V14.01,2013-05-02 04:03:00,
2013-05-01 23:04:00,63.5,59.9,29.91,ESE,113,0.0,0.0,88,0.00,,CLR,0.00,VWS V14.01,2013-05-02 04:04:00,
2013-05-01 23:09:00,63.5,59.9,29.91,ESE,113,0.0,0.0,88,0.00,,CLR,0.00,VWS V14.01,2013-05-02 04:09:00,
2013-05-01 23:14:00,63.5,59.9,29.91,ESE,113,0.0,0.0,88,0.00,,CLR,0.00,VWS V14.01,2013-05-02 04:14:00,
2013-05-01 23:19:00,63.5,59.9,29.92,ESE,113,0.0,0.0,88,0.00,,CLR,0.00,VWS V14.01,2013-05-02 04:19:00,
2013-05-01 23:24:00,63.4,59.8,29.91,ESE,113,0.0,0.0,88,0.00,,CLR,0.00,VWS V14.01,2013-05-02 04:24:00,
2013-05-01 23:29:00,63.4,60.1,29.92,ESE,113,0.0,0.0,89,0.00,,CLR,0.00,VWS V14.01,2013-05-02 04:29:00,
2013-05-01 23:30:00,63.4,60.1,29.92,ESE,113,0.0,0.0,89,0.00,,CLR,0.00,VWS V14.01,2013-05-02 04:30:00,
2013-05-01 23:34:00,63.4,60.1,29.92,ESE,113,0.0,0.0,89,0.00,,CLR,0.00,VWS V14.01,2013-05-02 04:34:00,
2013-05-01 23:39:00,63.4,60.1,29.92,ESE,113,0.0,0.0,89,0.00,,CLR,0.00,VWS V14.01,2013-05-02 04:39:00,
2013-05-01 23:44:00,63.4,60.1,29.92,ESE,113,0.0,0.0,89,0.00,,CLR,0.00,VWS V14.01,2013-05-02 04:44:00,
2013-05-01 23:50:00,63.4,60.1,29.92,ESE,113,0.0,0.0,89,0.00,,CLR,0.00,VWS V14.01,2013-05-02 04:50:00,
2013-05-01 23:55:00,63.4,60.1,29.92,ESE,113,0.0,0.0,89,0.00,,CLR,0.00,VWS V14.01,2013-05-02 04:55:00,